This is the latest recevied weather packets stored in our database for station/object W7TTE. If no packets are shown the sender has not sent any weather packets the latest 10 day(s).
| Time | Temp. | Humidity | Pressure | Rain* | Wind** | Luminosity | Snow |
|---|---|---|---|---|---|---|---|
| 1777906665 | 20.56° C | 53% | 1015.1 hPa | 0 mm | - | 87 W/m² | - |
| 1777906361 | 20.56° C | 52% | 1015 hPa | 0 mm | - | 87 W/m² | - |
| 1777905452 | 21.11° C | 53% | 1014.6 hPa | 0 mm | - | 90 W/m² | - |
| 1777905149 | 21.11° C | 51% | 1014.4 hPa | 0 mm | - | 82 W/m² | - |
| 1777904846 | 21.11° C | 50% | 1014.2 hPa | 0 mm | - | 78 W/m² | - |
| 1777904543 | 21.11° C | 49% | 1014.3 hPa | 0 mm | - | 66 W/m² | - |
| 1777904240 | 21.11° C | 49% | 1014 hPa | 0 mm | - | 58 W/m² | - |
| 1777903937 | 21.11° C | 49% | 1014.1 hPa | 0 mm | - | 52 W/m² | - |
| 1777903634 | 21.11° C | 49% | 1014.3 hPa | 0 mm | - | 47 W/m² | - |
| 1777903329 | 21.11° C | 48% | 1013.8 hPa | 0 mm | - | 46 W/m² | - |
| 1777903027 | 21.11° C | 48% | 1014 hPa | 0 mm | - | 41 W/m² | - |
| 1777902723 | 21.11° C | 47% | 1013.6 hPa | 0 mm | - | 37 W/m² | - |
| 1777901815 | 21.11° C | 46% | 1013.8 hPa | 0 mm | - | 27 W/m² | - |
| 1777901210 | 21.11° C | 46% | 1013.8 hPa | 0 mm | - | 18 W/m² | - |
| 1777900907 | 21.11° C | 47% | 1013.8 hPa | 0 mm | - | 15 W/m² | - |
| 1777900604 | 20.56° C | 47% | 1013.8 hPa | 0 mm | - | 14 W/m² | - |
| 1777900301 | 20.56° C | 47% | 1014 hPa | 0 mm | - | 11 W/m² | - |
| 1777899997 | 20.56° C | 47% | 1014.1 hPa | 0 mm | - | 8 W/m² | - |
| 1777899392 | 21.11° C | 46% | 1013.8 hPa | 0 mm | - | 4 W/m² | - |
| 1777899090 | 21.11° C | 46% | 1013.3 hPa | 0 mm | - | 3 W/m² | - |
| 1777898182 | 21.11° C | 45% | 1013.3 hPa | 0 mm | - | 0 W/m² | - |
| 1777897879 | 21.11° C | 45% | 1013.3 hPa | 0 mm | - | 0 W/m² | - |
| 1777897575 | 21.11° C | 45% | 1013.1 hPa | 0 mm | - | 0 W/m² | - |
| 1777897270 | 21.11° C | 46% | 1012.9 hPa | 0 mm | - | 0 W/m² | - |
| 1777896966 | 21.11° C | 45% | 1012.9 hPa | 0 mm | - | 0 W/m² | - |
* Rain latest hour (hover to see other rain measurements)
** Current wind speed in m/s (hover to see current wind gust speed)